Regional Weather Roundup
Issued by NWS State College, PA

Home | Current Version | Previous Version | Graphics & Text | Print | Product List | Glossary On
Versions: 1 2 3 4 5 6 7 8 9 10 11 12 13 14 15 16 17 18 19 20 21 22 23 24 25 26 27 28 29 30 31 32 33 34 35 36 37 38 39 40 41 42 43 44 45 46 47 48 49 50
000
ASUS41 KCTP 010803
RWRCTP

REGIONAL WEATHER ROUNDUP
NATIONAL WEATHER SERVICE STATE COLLEGE PA
300 AM EST SUN FEB 01 2015

Note: "fair" indicates few or no clouds below 12,000 feet with no
significant weather and/or obstructions to visibility.

* = STATION THAT DOES NOT REPORT PRECIPITATION /E.G. RAIN...SNOW...ETC/
    THUNDER OR FOG.

PAZ002>004-007>009-013>016-020>023-029>032-010900-
WESTERN PENNSYLVANIA

CITY           SKY/WX    TMP DP  RH WIND       PRES   REMARKS
ERIE           CLOUDY    29  19  66 SW6       30.17R
MEADVILLE      CLOUDY    25  18  74 S5        30.13S
FRANKLIN*      CLOUDY    25  16  68 SW6       30.15S
NEW CASTLE     CLOUDY    27  19  71 CALM      30.18S
BEAVER COUNTY  NOT AVBL
BUTLER*        CLOUDY    27  18  69 CALM      30.18S
PITTSBURGH INT CLOUDY    29  18  63 SW5       30.17S
PITTSBURGH     CLOUDY    26  14  60 S7        30.16F
INDIANA*       CLOUDY    23  18  80 CALM      30.20S
LATROBE        CLOUDY    28  18  64 SW8       30.20S
WASHINGTON CO* CLOUDY    28  16  59 CALM      30.19R
$$

PAZ004>006-010>012-017>019-024>028-033>037-041-042-045-046-049>053-010900-
CENTRAL PENNSYLVANIA

CITY           SKY/WX    TMP DP  RH WIND       PRES   REMARKS
BRADFORD       CLOUDY    21  15  78 W3        30.08S
DUBOIS         CLOUDY    20  15  81 SW7       30.12R WCI  11
CLEARFIELD     CLOUDY    18  12  77 S5        30.15S WCI  11
JOHNSTOWN      CLOUDY    25  14  63 W8        30.10F
ALTOONA        CLOUDY    25  15  66 S5        30.16S
STATE COLLEGE  CLOUDY    23  14  69 CALM      30.17F
WILLIAMSPORT   CLOUDY    22  11  62 W9        30.21S WCI  12
SELINSGROVE    CLOUDY    16  10  77 CALM      30.22F
FT INDIANTOWN  CLOUDY    19  11  71 CALM      30.22F
CAPITAL CITY   CLOUDY    16   9  74 CALM      30.24F
HARRISBURG     CLOUDY    15   9  76 CALM      30.24F
YORK           MOCLDY    11   7  84 CALM      30.23F
$$

PAZ038>040-043-044-047-048-054-055-060>062-067>071-010900-
EASTERN PENNSYLVANIA

CITY           SKY/WX    TMP DP  RH WIND       PRES   REMARKS
SCRANTON       CLOUDY    17   7  64 SW5       30.15S WCI  10
MOUNT POCONO   CLOUDY    15   7  70 W9        30.06S WCI   3
ALLENTOWN      CLOUDY    23  11  60 W8        30.20S WCI  14
QUAKERTOWN*    CLOUDY    19  10  68 SW3       30.20F
READING        CLOUDY    21   9  59 CALM      30.22F
LANCASTER      CLOUDY    14   5  67 CALM      30.23F
COATESVILLE    SUNNY     23  12  63 W5        30.21F
POTTSTOWN      CLOUDY    22  11  62 W5        30.22F
BLUE BELL      CLOUDY    25  12  58 CALM      30.22F
DOYLESTOWN     CLOUDY    20  10  65 SW5       30.20S WCI  13
WILLOW GROVE   NOT AVBL
NORTH PHILA    MOCLDY    25  11  55 W7        30.25S
PHILADELPHIA   PTCLDY    22  11  62 SW6       30.26S WCI  14
$$


USA.gov is the U.S. government's official web portal to all federal, state and local government web resources and services.